Weather in Dobrinka

Russia / Volgograd Oblast     48°49′22″N   42°58′14″E
temp.,
°C
wind,
m/s
gust,
m/s
humid.,
%
clouds,
%
prec.,
mm/h
press.,
hPa
HPBL,
m
28 july, wed
wed2800:00+22ssw11385 0.0 101711
03:00+21nnw22415 0.0 101711
06:00+23nw22410 0.0 101744
09:00+28n33310 0.0 1017916
12:00+31nnw442521 0.0 10163063
15:00+33nnw442148 0.0 10143296
18:00+32n432410 0.0 10142929
21:00+26nne3435100 0.0 101552
29 july, thu
thu2900:00+26e3333100 0.0 101448
03:00+24se333767 0.0 101445
06:00+24ssw22426 0.0 101442
09:00+30wsw452799 0.0 1013704
12:00+33w45246 0.0 10122860
15:00+34w662242 0.0 10113138
18:00+30nnw353327 0.0 1010157
21:00+27sw113824 0.0 101012
30 july, fri
fri3000:00+25sw224547 0.0 101014
03:00+23w22495 0.1 101019
06:00+24w23525 0.0 101196
09:00+31sw46355 0.0 10101144
12:00+34wsw672434 0.0 10103095
15:00+35wsw672150 0.0 10083377
18:00+33w8828100 0.0 10081251
21:00+27w71343100 0.1 1009263
31 july, sat
sat3100:00+27ssw224589 0.4 100939
03:00+23w346577 0.6 100959
06:00+24s23604 0.0 1010105
09:00+31wsw45305 0.0 1009823
12:00+35w562120 0.0 10092751
15:00+34w552380 0.0 10092920
18:00+33nnw1224100 0.0 10091222
21:00+26ene34496 0.0 101064
1 august, sun
sun100:00+25ese34526 0.0 101154
03:00+24e33540 0.0 101146
06:00+24ese37495 0.0 1012179
09:00+32ese34300 0.0 1011750
12:00+36s45170 0.0 10103185
15:00+37s44154 0.0 10103527
18:00+36ssw34165 0.0 10093262
21:00+30s12225 0.0 101011